762  
ASHW40 PHFO 071944  
RWRHI  
 
WEATHER ROUNDUP FOR HAWAII  
NATIONAL WEATHER SERVICE HONOLULU HI  
900 AM HST TUE JUL 07 2020  
 
THIS IS AN AUTOMATED REPORT THAT HAS NOT BEEN QUALITY CONTROLLED.  
 
NOTE..."FAIR" INDICATES FEW OR NO CLOUDS BELOW 12,000 FEET WITH NO  
SIGNIFICANT WEATHER AND/OR S TO VISIBILITY
.  
 
* - THESE SITES REPORT LIMITED FIELDS  
# - BUOY DATA PROVIDED BY PACIFIC ISLANDS OCEAN OBSERVING SYSTEM.  
 
HIZ001>004-072000-  
KAUAI-NIIHAU-  
 
CITY SKY/WX TMP DP RH WIND PRES REMARKS
 
LIHUE APT FAIR 82 72 71 NE14 30.09R  
PORT ALLEN* N/A 79 N/A N/A E14G20 N/A  
POIPU* NOT AVBL  
PRINCEVILLE* N/A 79 N/A N/A E7G14 N/A  
KOKOLE POINT* NOT AVBL  
MOLOAA DAIRY* N/A 81 72 74 E5G13 N/A  
WAIMEA HTS* NOT AVBL  
PUU OPAE* NOT AVBL  
PUU LUA* NOT AVBL  
MAKAHA RIDGE* N/A 79 64 61 E1 N/A  

 
 
HIZ005>011-072000-  
OAHU-  
 
CITY SKY/WX TMP DP RH WIND PRES REMARKS
 
HONOLULU FAIR 82 67 60 NE16 30.06S  
KALAELOA FAIR 82 68 62 E8 30.07  
KANEOHE MCB FAIR 81 68 64 E12 30.05R  
WHEELER FIELD FAIR 78 67 69 NE6 30.07S  
BELLOWS* N/A 81 N/A N/A NE15 N/A  
KAHUKU* N/A 81 N/A N/A NE9G18 N/A  
WHEELER* N/A 81 N/A N/A E7 N/A  
WAIANAE HARBOR N/A 86 N/A N/A NE5G13 N/A  
DILLINGHAM* N/A 84 68 58 NE3G10 N/A  
KAHUKU TRN* N/A 81 68 65 E7G18 N/A  
KAWAILOA* NOT AVBL  
KII* N/A 81 70 69 E14G20 N/A  
MAKUA RANGE* NOT AVBL  
OAHU FOREST NW NOT AVBL  
SCHOFIELD BRK* N/A 79 66 65 E7 N/A  
SCHOFIELD S* NOT AVBL  
WAIANAE VLY* NOT AVBL  
KUAOKALA* NOT AVBL  
HONOULIUULI* NOT AVBL  
MOKUOLOE IS* N/A 82 N/A N/A E6G13 N/A  
PALEHUA* NOT AVBL  
WAIAWA PHB* NOT AVBL  

 
 
HIZ012>013-072000-  
MOLOKAI-  
 
CITY SKY/WX TMP DP RH WIND PRES REMARKS
 
MOLOKAI AIRPT FAIR 79 66 64 NE15G21 30.08S  
KALAUPAPA NOT AVBL  
MAKAPULAPAI* N/A 81 70 69 E14G24 N/A  
MOLOKAI 1* NOT AVBL  
PUU ALII* N/A 61 61 100 N3G15 N/A  

 
 
HIZ016-072000-  
KAHOOLAWE-  
 
CITY SKY/WX TMP DP RH WIND PRES REMARKS
 
KAHOOLAWE* NOT AVBL  
HAKIOAWA* NOT AVBL  
HONOKANAIA* NOT AVBL  
KANELOA* N/A 75 66 73 E20G31 30.11  
KEALIALALO* NOT AVBL  
LUA MAKIKA* NOT AVBL  

 
 
HIZ014>015-072000-  
LANAI-  
 
CITY SKY/WX TMP DP RH WIND PRES REMARKS
 
LANAI CITY PTSUNNY 77 68 73 VRB7 30.11S  
LANAI 1* NOT AVBL  

 
 
HIZ017>028-072000-  
MAUI-  
 
CITY SKY/WX TMP DP RH WIND PRES REMARKS
 
KAHULUI FAIR 85 67 54 NE21G29 30.05S  
KAPALUA-W MAUI MOSUNNY 81 66 61 NE15 30.06R  
HANA AIRPORT NOT AVBL  
HANA* N/A 79 N/A N/A E8G15 N/A  
HALEAKALA SUMM N/A 50 30 46 E15 N/A VSB 0  
MAALAEA BAY* N/A 86 N/A N/A N18G29 N/A  
HALEAKALA* NOT AVBL  
KAUPO GAP* NOT AVBL  
KULA 1* N/A 58 49 73 NW2 N/A  

 
 
HIZ023>026-072000-  
BIG ISLAND OF HAWAII COAST AND LOWER SLOPES-  
 
CITY SKY/WX TMP DP RH WIND PRES REMARKS
 
KAILUA KONA FAIR 81 67 62 S10 30.01S  
HILO CLOUDY 79 69 71 SW5 30.08F  
HONOKAA* NOT AVBL  
KAWAIHAE MWT* NOT AVBL  
KAWAIHAE* N/A 79 N/A N/A W12 N/A  
SOUTH POINT* N/A 75 N/A N/A E24G35 N/A  
UPOLU AIRPORT* N/A 81 N/A N/A E20G30 N/A  
KAMUELA* NOT AVBL  
HAKALAU* N/A 61 53 75 E3 N/A  
KALOKO-HONOKO* N/A 82 68 61 S8 30.01S  
PALI 2* N/A 72 59 64 NE23G33 N/A  
KEALAKOMO* N/A 81 64 57 NE16G26 N/A  
KAUPULEHU* NOT AVBL  
KAPAPALA* N/A 72 63 72 W3 N/A  
LOWER KAHUKU* N/A 64 63 94 E2G10 N/A  
PUHE CS* N/A 81 66 61 W3G12 N/A  
PUHO CS* N/A 78 66 66 S2 N/A  
PTA KEAMUKU* N/A 70 59 68 NE17G25 N/A  
WAIKOLOA* NOT AVBL  

 
 
HIZ027>028-072000-  
BIG ISLAND OF HAWAII INTERIOR AND SUMMMITS-  
 
CITY SKY/WX TMP DP RH WIND PRES REMARKS
 
BRADSHAW FIELD FAIR 61 51 68 SE15 30.34S  
MK VISITOR CEN N/A 59 21 23 SE15 N/A  
MAUNA KEA* NOT AVBL  
MAUNA LOA* NOT AVBL  
MAUNA LOA 1* NOT AVBL  
PTA KIPUKA* N/A 66 55 68 W5 N/A  
PTA RANGE 17* N/A 64 43 45 E14G23 N/A  
PTA WEST* N/A 66 55 68 NW9G20 N/A  
NENE CABIN* N/A 57 50 77 E8G16 N/A  
AHUMOA* NOT AVBL  
PTA PORTABLE* NOT AVBL  
PUU MALI* N/A 66 41 39 W3G12 N/A  

 
 
HIC003-072000-  
NORTHWEST ISLANDS-  
 
CITY SKY/WX TMP DP RH WIND PRES REMARKS
 
MIDWAY ISLAND SUNNY 75 64 69 CALM 29.94R  
MIDWAY NOS* NOT AVBL  
FRENCH FRIGATE NOT AVBL  

 
 
PHZ110>124-180-072000-  
BUOY REPORTS  
 
STATION/POSITION TIME TEMP WIND PRES WAVE SWELL
 
AIR SEA DIR/SP/G HT/PER HT/DIR  
(UTC) (F) (DEG/KT/KT) (MB) (FT/S) (FT/D)  
BUOY 51101 NOT AVBL  
BUOY 51100 NOT AVBL  
BUOY 51002 NOT AVBL  
BUOY 51003 NOT AVBL  
BUOY 51004 NOT AVBL  
WAIMEA BAY# 1926 80 N/A 3/ 6  
MOKAPU POINT# 1926 80 N/A 4/ 6 2/ 80  
LANAI# 1926 81 N/A 2/11 2/170  
BARBERS PT# 1926 81 N/A 4/10 2/190  
PAUWELA# 1926 80 N/A 4/ 7  
HILO# 1913 79 N/A 5/ 6 2/130  
KANEOHE BAY# 1926 80 N/A 4/ 6  
KANEOHE BAY 2# NOT AVBL  
HANALEI# NOT AVBL  
KAHULUI HARBOR 1912 80 70/ 19/ 23 1017.9  
HONOLULU HARBOR 1900 80 81 90/ 2/ 6 1018.1  
PEARL HARBOR# 1900 81 N/A 3/10 2/160  
KILO NALU NOT AVBL  
HILO HARBOR 1900 75 79 300/ 5/ 7 1017.1  
MOKUOLOE 1836 82 100/ 4/ 11 1018.1R  
NAWILIWILI 1912 85 60/ 12/ 15 1018.7  
WHOTS BUOY NOT AVBL  
BUOY 51028 NOT AVBL  

 
   
.....................KEY.....................................
 
 
SKY/WX - SKY CONDITIONS/PRESENT WEATHER  
TMP - TEMPERATURE IN FAHRENHEIT  
DWPT - DEWPOINT IN FAHRENHEIT  
RH - RELATIVE HUMIDITY IN PERCENT  
WIND - DIRECTION AND SPEED /MPH FOR ISLANDS...KTS FOR BUOYS/  
PRES - MEAN SEA LEVEL PRESSURE IN INCHES OF HG  
VSB - VISIBILITY IN MILES  
HX - HEAT INDEX  
WCI - WIND CHILL INDEX  
VRB - VARIABLE WIND DIRECTION  
N/A - NOT AVAILABLE  
 
 
CLICK HERE TO GO TO PREVIOUS BULLETINS.

The Nexlab HI Page Main Text Page